Anchorage, AK

8:02 PM AKST on February 09, 2016 (GMT -0900)
Stevens Anchorage International

Weather History for PANC - March, 2014

Change the Weather History Date:

Wednesday, March 5, 2014

  Actual Average Record
Temperature  
Mean Temperature 29 °F 24 °F  
Max Temperature 35 °F 31 °F 44 °F (1984)
Min Temperature 23 °F 17 °F -22 °F (1956)
Degree Days  
Heating Degree Days 36    
Month to date heating degree days 178  
Since 1 July heating degree days 6927  
Cooling Degree Days 0    
Month to date cooling degree days 0  
Year to date cooling degree days 0  
Moisture  
Dew Point 26 °F    
Average Humidity 78    
Maximum Humidity 92    
Minimum Humidity 64    
Precipitation  
Precipitation 0.07 in 0.02 in 0.41 in (2009)
Month to date precipitation 0.07 0.10  
Year to date precipitation 2.09 1.55  
Snow  
Snow 2.40 in 0.30 in 4.40 in (2009)
Month to date snowfall 2.4 1.7  
Since 1 July snowfall 55.8 62.0  
Snow Depth 6.00 in    
Sea Level Pressure  
Sea Level Pressure 29.69 in    
Wind  
Wind Speed 6 mph (West)    
Max Wind Speed 9 mph    
Max Gust Speed 22 mph    
Visibility 5 miles    
Events Fog , Snow    
T = Trace of Precipitation, MM = Missing Value Source: NWS Daily Summary

Daily Weather History Graph

Daily Weather History Graph

Search for Another Location

Airport or City:

Trip Planner

Search our weather history database for the weather conditions in past years. The results will help you decide how hot, cold, wet, or windy it might be!

Date:

Astronomy

Mar. 05, 2014 Rise Set
Actual Time 7:47 AM AKST 6:36 PM AKST
Civil Twilight 7:04 AM AKST 7:19 PM AKST
Nautical Twilight 6:14 AM AKST 8:09 PM AKST
Astronomical Twilight 5:23 AM AKST 9:01 PM AKST
Moon 8:56 AM AKST (3/5) 12:12 AM AKST (3/5)
Length of Visible Light 12h 15m
Length of Day
10h 48m
Waxing Crescent, 24% of the Moon is Illuminated
Mar 5
Waxing Crescent
Mar 8
First Quarter
Mar 16
Full
Mar 23
Last Quarter
Mar 30
New

Hourly Weather History & Observations

Time (AKST) Temp. Windchill Dew Point Humidity Pressure Visibility Wind Dir Wind Speed Gust Speed Precip Events Conditions
12:53 AM 36.0 °F 29.0 °F 25.0 °F 64% 29.74 in 10.0 mi SSE 9.2 mph 19.6 mph 0.00 in Snow Light Snow
1:53 AM 36.0 °F 29.0 °F 25.0 °F 64% 29.74 in 10.0 mi SSE 9.2 mph - 0.00 in Snow Light Snow
3:39 AM 32.0 °F 24.2 °F 28.4 °F 87% 29.73 in 5.0 mi WSW 9.2 mph - 0.00 in Snow Light Snow
3:53 AM 32.0 °F 25.6 °F 30.0 °F 92% 29.74 in 5.0 mi WSW 6.9 mph 21.9 mph 0.00 in Snow Light Snow
4:53 AM 32.0 °F 25.6 °F 28.9 °F 88% 29.72 in 5.0 mi SW 6.9 mph - 0.02 in Snow Light Snow
5:16 AM 32.0 °F 26.4 °F 28.4 °F 87% 29.71 in 2.0 mi SW 5.8 mph - 0.00 in Snow Light Snow
5:27 AM 32.0 °F 27.5 °F 28.4 °F 87% 29.71 in 0.8 mi South 4.6 mph - 0.00 in Snow Light Snow
5:38 AM 32.0 °F 25.6 °F 28.4 °F 87% 29.71 in 2.0 mi South 6.9 mph - 0.01 in Snow Light Snow
5:53 AM 32.0 °F 25.6 °F 28.9 °F 88% 29.72 in 2.0 mi SSW 6.9 mph - 0.01 in Snow Light Snow
6:18 AM 30.2 °F 25.4 °F 28.4 °F 93% 29.71 in 5.0 mi SSW 4.6 mph - 0.00 in Snow Light Snow
6:34 AM 30.2 °F 25.4 °F 28.4 °F 93% 29.71 in 5.0 mi South 4.6 mph - 0.00 in Snow Light Snow
6:53 AM 30.9 °F 25.2 °F 28.0 °F 89% 29.71 in 5.0 mi South 5.8 mph - 0.00 in Snow Light Snow
7:53 AM 30.9 °F 25.2 °F 28.9 °F 92% 29.70 in 5.0 mi South 5.8 mph - 0.00 in Snow Light Snow
8:03 AM 30.2 °F 25.4 °F 28.4 °F 93% 29.69 in 5.0 mi South 4.6 mph - 0.00 in Snow Light Snow
8:53 AM 30.9 °F 24.3 °F 28.0 °F 89% 29.70 in 5.0 mi South 6.9 mph - 0.00 in Snow Light Snow
9:41 AM 30.2 °F 24.3 °F 26.6 °F 86% 29.70 in 6.0 mi SSW 5.8 mph - 0.00 in Snow Light Snow
9:53 AM 30.9 °F 24.3 °F 27.0 °F 85% 29.70 in 6.0 mi SSW 6.9 mph - 0.00 in Snow Light Snow
10:31 AM 30.2 °F 24.3 °F 26.6 °F 86% 29.70 in 5.0 mi WSW 5.8 mph - 0.00 in Snow Light Snow
10:53 AM 30.0 °F 21.7 °F 26.1 °F 85% 29.71 in 4.0 mi NW 9.2 mph - 0.00 in Snow Light Snow
11:46 AM 28.4 °F - 26.6 °F 93% 29.70 in 2.0 mi Calm Calm - 0.00 in Snow Light Snow
11:53 AM 28.9 °F 23.9 °F 26.1 °F 89% 29.70 in 2.0 mi NW 4.6 mph - 0.00 in Snow Light Snow
12:16 PM 28.4 °F 23.3 °F 26.6 °F 93% 29.70 in 2.0 mi NNW 4.6 mph - 0.00 in Snow Light Snow
12:21 PM 28.4 °F 24.6 °F 26.6 °F 93% 29.70 in 3.0 mi NNW 3.5 mph - 0.00 in Snow Light Snow
12:30 PM 28.4 °F - 26.6 °F 93% 29.69 in 3.0 mi Calm Calm - 0.00 in Snow Light Snow
12:43 PM 28.4 °F - 26.6 °F 93% 29.70 in 2.0 mi Calm Calm - 0.01 in Snow Light Snow
12:49 PM 28.4 °F - 26.6 °F 93% 29.69 in 1.5 mi Calm Calm - 0.01 in Snow Light Snow
12:53 PM 30.0 °F - 27.0 °F 88% 29.70 in 1.0 mi Calm Calm - 0.01 in Snow Light Snow
1:06 PM 30.2 °F 25.4 °F 26.6 °F 86% 29.69 in 1.0 mi Variable 4.6 mph - 0.00 in Snow Light Snow
1:53 PM 30.0 °F 23.2 °F 27.0 °F 88% 29.69 in 1.0 mi SSE 6.9 mph - 0.01 in Snow Light Snow
2:24 PM 30.2 °F 25.4 °F 28.4 °F 93% 29.68 in 2.0 mi SE 4.6 mph - 0.00 in Snow Light Snow
2:36 PM 30.2 °F 24.3 °F 26.6 °F 86% 29.68 in 3.0 mi SE 5.8 mph - 0.01 in Snow Light Snow
2:53 PM 30.9 °F 26.2 °F 27.0 °F 85% 29.68 in 5.0 mi Variable 4.6 mph - 0.01 in Snow Light Snow
3:53 PM 28.9 °F 23.9 °F 26.1 °F 89% 29.68 in 10.0 mi NW 4.6 mph - 0.00 in Snow Light Snow
4:39 PM 28.4 °F 23.3 °F 24.8 °F 86% 29.66 in 10.0 mi NW 4.6 mph - 0.00 in Snow Light Snow
4:53 PM 28.9 °F 25.2 °F 26.1 °F 89% 29.67 in 10.0 mi NW 3.5 mph - 0.00 in Snow Light Snow
5:53 PM 28.0 °F 24.2 °F 25.0 °F 88% 29.66 in 10.0 mi NW 3.5 mph - 0.00 in Snow Light Snow
6:53 PM 27.0 °F 23.0 °F 24.1 °F 89% 29.67 in 10.0 mi NNW 3.5 mph - 0.00 in Snow Light Snow
7:28 PM 24.8 °F - 23.0 °F 93% 29.66 in 10.0 mi Calm Calm - 0.00 in   Mostly Cloudy
7:53 PM 26.1 °F - 24.1 °F 92% 29.67 in 10.0 mi Calm Calm - 0.00 in   Mostly Cloudy
8:53 PM 24.1 °F 18.2 °F 21.9 °F 91% 29.67 in 10.0 mi NW 4.6 mph - N/A   Mostly Cloudy
9:36 PM 23.0 °F 18.4 °F 21.2 °F 93% 29.67 in 10.0 mi NW 3.5 mph - N/A   Overcast
9:53 PM 25.0 °F 19.3 °F 23.0 °F 92% 29.68 in 10.0 mi NW 4.6 mph - N/A   Overcast
10:00 PM 24.8 °F 19.1 °F 23.0 °F 93% 29.67 in 10.0 mi NNW 4.6 mph - N/A   Overcast
10:16 PM 24.8 °F 16.9 °F 24.8 °F 100% 29.67 in 7.0 mi NNW 6.9 mph - N/A   Overcast
10:30 PM 24.8 °F 16.1 °F 24.8 °F 100% 29.67 in 1.5 mi NNW 8.1 mph - N/A   Overcast
10:33 PM 24.8 °F 16.9 °F 24.8 °F 100% 29.67 in 0.8 mi North 6.9 mph - N/A   Overcast
10:41 PM 24.8 °F 16.1 °F 24.8 °F 100% 29.67 in 0.5 mi NNW 8.1 mph - N/A Fog Light Freezing Fog
10:53 PM 25.0 °F 17.1 °F 23.0 °F 92% 29.68 in 0.8 mi NNW 6.9 mph - N/A   Mist
10:56 PM 24.8 °F 16.9 °F 23.0 °F 93% 29.68 in 2.0 mi NNW 6.9 mph - N/A   Overcast
11:02 PM 24.8 °F 16.1 °F 21.2 °F 86% 29.68 in 10.0 mi NNW 8.1 mph - N/A   Overcast
11:53 PM 21.9 °F 13.4 °F 17.1 °F 82% 29.69 in 10.0 mi NW 6.9 mph - N/A   Overcast